TimeEST,TemperatureF,Dew PointF,Humidity,Sea Level PressureIn,VisibilityMPH,Wind Direction,Wind SpeedMPH,Gust SpeedMPH,PrecipitationIn,Events,Conditions,WindDirDegrees,DateUTC
12:15 AM,39.2,39.2,100,30.40,10.0,Calm,Calm,-,N/A,,Clear,0,2013-01-08 05:15:00
12:35 AM,42.8,41.0,93,30.39,10.0,Calm,Calm,-,N/A,,Clear,0,2013-01-08 05:35:00
12:55 AM,42.8,39.2,87,30.38,10.0,NNE,3.5,-,N/A,,Clear,30,2013-01-08 05:55:00
1:15 AM,44.6,41.0,87,30.38,10.0,Calm,Calm,-,N/A,,Clear,0,2013-01-08 06:15:00
1:35 AM,44.6,41.0,87,30.37,10.0,North,3.5,-,N/A,,Clear,10,2013-01-08 06:35:00
1:55 AM,44.6,41.0,87,30.36,10.0,NNE,3.5,-,N/A,,Clear,20,2013-01-08 06:55:00
2:15 AM,44.6,41.0,87,30.35,10.0,NE,4.6,-,N/A,,Clear,40,2013-01-08 07:15:00
2:35 AM,44.6,41.0,87,30.36,10.0,NNE,3.5,-,N/A,,Clear,30,2013-01-08 07:35:00
2:55 AM,44.6,41.0,87,30.36,10.0,Calm,Calm,-,N/A,,Clear,0,2013-01-08 07:55:00
3:15 AM,44.6,41.0,87,30.36,10.0,Calm,Calm,-,N/A,,Clear,0,2013-01-08 08:15:00
3:35 AM,44.6,41.0,87,30.36,10.0,North,3.5,-,N/A,,Light Drizzle,10,2013-01-08 08:35:00
3:55 AM,44.6,41.0,87,30.35,10.0,North,4.6,-,N/A,,Clear,360,2013-01-08 08:55:00
4:15 AM,46.4,39.2,76,30.35,10.0,NNE,4.6,-,N/A,,Clear,30,2013-01-08 09:15:00
4:35 AM,46.4,39.2,76,30.35,10.0,NNE,4.6,-,N/A,,Clear,20,2013-01-08 09:35:00
4:55 AM,46.4,39.2,76,30.35,10.0,North,5.8,-,N/A,,Clear,10,2013-01-08 09:55:00
5:15 AM,46.4,39.2,76,30.36,10.0,North,3.5,-,N/A,,Clear,10,2013-01-08 10:15:00
5:35 AM,46.4,39.2,76,30.36,10.0,North,5.8,-,N/A,,Clear,360,2013-01-08 10:35:00
5:55 AM,46.4,39.2,76,30.37,10.0,North,3.5,-,N/A,,Clear,350,2013-01-08 10:55:00
6:15 AM,46.4,39.2,76,30.37,10.0,NNE,4.6,-,N/A,,Clear,20,2013-01-08 11:15:00
6:35 AM,46.4,37.4,71,30.38,10.0,Calm,Calm,-,N/A,,Clear,0,2013-01-08 11:35:00
6:55 AM,46.4,37.4,71,30.38,10.0,North,3.5,-,N/A,,Clear,10,2013-01-08 11:55:00
7:15 AM,44.6,37.4,76,30.38,10.0,NNE,4.6,-,N/A,,Clear,20,2013-01-08 12:15:00
7:35 AM,46.4,37.4,71,30.39,10.0,North,4.6,-,N/A,,Clear,360,2013-01-08 12:35:00
7:55 AM,46.4,37.4,71,30.40,10.0,NNE,4.6,-,N/A,,Clear,30,2013-01-08 12:55:00
8:15 AM,46.4,37.4,71,30.40,10.0,North,4.6,-,N/A,,Clear,10,2013-01-08 13:15:00
8:35 AM,46.4,37.4,71,30.41,10.0,NNE,4.6,-,N/A,,Clear,30,2013-01-08 13:35:00
8:55 AM,46.4,39.2,76,30.41,10.0,NNE,8.1,-,N/A,,Clear,30,2013-01-08 13:55:00
9:15 AM,46.4,39.2,76,30.41,10.0,NNE,3.5,-,N/A,,Clear,30,2013-01-08 14:15:00
9:35 AM,48.2,41.0,76,30.42,10.0,Calm,Calm,-,N/A,,Clear,0,2013-01-08 14:35:00
9:55 AM,48.2,41.0,76,30.42,10.0,North,3.5,-,N/A,,Clear,10,2013-01-08 14:55:00
10:15 AM,50.0,41.0,71,30.42,10.0,NNE,8.1,-,N/A,,Clear,20,2013-01-08 15:15:00
10:35 AM,51.8,42.8,71,30.42,10.0,North,5.8,-,N/A,,Clear,10,2013-01-08 15:35:00
11:15 AM,53.6,44.6,72,30.41,10.0,NE,3.5,-,N/A,,Clear,40,2013-01-08 16:15:00
11:35 AM,55.4,44.6,67,30.40,10.0,North,3.5,-,N/A,,Clear,10,2013-01-08 16:35:00
11:55 AM,57.2,46.4,67,30.39,10.0,North,4.6,-,N/A,,Clear,10,2013-01-08 16:55:00
12:15 PM,59.0,46.4,63,30.38,10.0,Calm,Calm,-,N/A,,Clear,0,2013-01-08 17:15:00
12:35 PM,59.0,46.4,63,30.37,10.0,Calm,Calm,-,N/A,,Clear,0,2013-01-08 17:35:00
12:55 PM,60.8,48.2,63,30.37,10.0,Calm,Calm,-,N/A,,Clear,0,2013-01-08 17:55:00
1:15 PM,60.8,48.2,63,30.36,10.0,Calm,Calm,-,N/A,,Clear,0,2013-01-08 18:15:00
1:35 PM,60.8,50.0,68,30.36,10.0,NNW,3.5,-,N/A,,Clear,330,2013-01-08 18:35:00
1:55 PM,60.8,50.0,68,30.35,10.0,Calm,Calm,-,N/A,,Clear,0,2013-01-08 18:55:00
2:15 PM,62.6,50.0,63,30.35,10.0,WNW,3.5,-,N/A,,Clear,290,2013-01-08 19:15:00
2:35 PM,62.6,50.0,63,30.35,10.0,NNW,3.5,-,N/A,,Clear,330,2013-01-08 19:35:00
2:55 PM,62.6,51.8,68,30.34,10.0,Calm,Calm,-,N/A,,Clear,0,2013-01-08 19:55:00
3:15 PM,62.6,51.8,68,30.34,10.0,NNE,3.5,-,N/A,,Clear,30,2013-01-08 20:15:00
3:35 PM,62.6,51.8,68,30.34,10.0,East,3.5,-,N/A,,Clear,80,2013-01-08 20:35:00
3:55 PM,62.6,51.8,68,30.34,10.0,Calm,Calm,-,N/A,,Clear,0,2013-01-08 20:55:00
4:15 PM,62.6,51.8,68,30.34,10.0,Calm,Calm,-,N/A,,Clear,0,2013-01-08 21:15:00
4:35 PM,62.6,51.8,68,30.35,10.0,Calm,Calm,-,N/A,,Clear,0,2013-01-08 21:35:00
4:55 PM,62.6,51.8,68,30.35,10.0,Calm,Calm,-,N/A,,Clear,0,2013-01-08 21:55:00
5:15 PM,60.8,51.8,72,30.35,10.0,Calm,Calm,-,N/A,,Clear,0,2013-01-08 22:15:00
5:35 PM,59.0,51.8,77,30.34,10.0,Calm,Calm,-,N/A,,Clear,0,2013-01-08 22:35:00
5:55 PM,59.0,51.8,77,30.34,10.0,North,3.5,-,N/A,,Clear,10,2013-01-08 22:55:00
6:15 PM,57.2,51.8,82,30.35,10.0,Calm,Calm,-,N/A,,Clear,0,2013-01-08 23:15:00
6:35 PM,55.4,51.8,88,30.35,10.0,Calm,Calm,-,N/A,,Clear,0,2013-01-08 23:35:00
6:55 PM,53.6,51.8,94,30.36,10.0,Calm,Calm,-,N/A,,Clear,0,2013-01-08 23:55:00
7:15 PM,53.6,50.0,88,30.36,10.0,Calm,Calm,-,N/A,,Clear,0,2013-01-09 00:15:00
7:35 PM,51.8,51.8,100,30.37,10.0,Calm,Calm,-,N/A,,Clear,0,2013-01-09 00:35:00
7:55 PM,51.8,50.0,94,30.37,10.0,Calm,Calm,-,N/A,,Clear,0,2013-01-09 00:55:00
8:15 PM,50.0,50.0,100,30.37,10.0,Calm,Calm,-,N/A,,Clear,0,2013-01-09 01:15:00
8:35 PM,50.0,50.0,100,30.37,10.0,Calm,Calm,-,N/A,,Clear,0,2013-01-09 01:35:00
8:55 PM,48.2,48.2,100,30.37,10.0,WNW,3.5,-,N/A,,Clear,300,2013-01-09 01:55:00
9:15 PM,50.0,50.0,100,30.38,10.0,Calm,Calm,-,N/A,,Clear,0,2013-01-09 02:15:00
9:35 PM,48.2,48.2,100,30.38,10.0,Calm,Calm,-,N/A,,Clear,0,2013-01-09 02:35:00
9:55 PM,46.4,46.4,100,30.38,10.0,Calm,Calm,-,N/A,,Clear,0,2013-01-09 02:55:00
10:15 PM,48.2,48.2,100,30.38,10.0,Calm,Calm,-,N/A,,Clear,0,2013-01-09 03:15:00
10:35 PM,51.8,51.8,100,30.37,10.0,NE,4.6,-,N/A,,Clear,50,2013-01-09 03:35:00
10:55 PM,51.8,51.8,100,30.37,10.0,Calm,Calm,-,N/A,,Clear,0,2013-01-09 03:55:00
11:35 PM,50.0,50.0,100,30.37,10.0,Calm,Calm,-,N/A,,Clear,0,2013-01-09 04:35:00
11:55 PM,48.2,48.2,100,30.37,10.0,Calm,Calm,-,N/A,,Clear,0,2013-01-09 04:55:00